Location: Fort Wayne
(41.1310°N, 85.1290°W)
Time: 22:36:50
(UTC-04:00)

Cosmos 1000 Rocket - Visible Passes

Search period start: 02 July 2015 00:00
Search period end: 12 July 2015 00:00
Orbit: 953 x 993 km, 82.9° (Epoch: 02 July)

Date Brightness Start Highest point End Pass type
(mag) Time Alt. Az. Time Alt. Az. Time Alt. Az.
02 Jul 5.3 21:43:46 10° NNW 21:49:50 55° W 21:55:54 10° SSW visible
03 Jul 6.3 22:08:58 10° NNW 22:14:22 31° W 22:19:40 10° SW visible
04 Jul 7.0 22:34:48 10° NW 22:38:47 17° W 22:42:29 10° WSW visible
06 Jul 6.1 21:37:35 10° NNW 21:43:17 37° W 21:48:56 10° SSW visible
07 Jul 7.0 22:03:08 10° NW 22:07:45 21° W 22:12:07 10° SW visible
08 Jul 7.5 22:30:21 10° WNW 22:32:04 11° W 22:33:19 10° W visible
11 Jul 7.3 21:57:52 10° NW 22:01:03 14° W 22:03:52 10° WSW visible
